This demonstration page uses our WeatherBlox Daily Observations layout. Learn more.

Left ArrowRight Arrow

39.92423, -83.80882

Hourly Observations for December 10, 2015

Temp ( °F °C ) Dew Point ( °F °C ) Humidity (%) Winds ( mph kmh ) Pressure ( in mb ) Visibility ( mi km ) Precip ( " mm )
12:56 am 00:56 Clear 41 5 41 5 100 100 S 8 13 29.91 1013 10 16.0934 0 0
1:56 am 01:56 Clear 44 6.6 42 5.5 93 93 S 8 13 29.91 1013 10 16.0934 0 0
2:56 am 02:56 Clear 43 6.1 41 5 93 93 SSW 6 9 29.91 1013 10 16.0934 0 0
3:56 am 03:56 Clear 42 5.5 40 4.4 93 93 S 5 7 29.92 1013 10 16.0934 0 0
4:56 am 04:56 Clear 40 4.4 40 4.4 100 100 S 6 9 29.92 1013 7 11.26538 0 0
5:56 am 05:56 Clear with Mist and Fog 41 5 41 5 100 100 S 7 11 29.92 1013 6 9.65604 0 0
6:28 am 06:28 Partly Cloudy with Mist and Fog 43 6 43 6 100 100 S 8 13 29.94 1014 3 4.82802 0 0
6:34 am 06:34 Mostly Cloudy with Mist and Fog 43 6 43 6 100 100 S 9 15 29.94 1014 2.5 4.02335 0 0
6:40 am 06:40 Mostly Cloudy with Mist and Fog 43 6 43 6 100 100 S 9 15 29.94 1014 1.25 2.011675 0 0
6:42 am 06:42 Mostly Cloudy with Mist and Fog 43 6 43 6 100 100 S 9 15 29.94 1014 1 1.60934 0 0
6:46 am 06:46 Cloudy with Fog 43 6 43 6 100 100 S 7 11 29.94 1014 0.5 0.80467 0 0
6:56 am 06:56 Cloudy with Fog 43 6.1 43 6.1 100 100 S 8 13 29.92 1013 0.25 0.402335 0 0
7:56 am 07:56 Cloudy with Fog 43 6.1 43 6.1 100 100 S 10 17 29.92 1013 0.25 0.402335 0 0
8:16 am 08:16 Cloudy with Fog 43 6 43 6 100 100 S 7 11 29.94 1014 5 8.0467 0 0
8:56 am 08:56 Cloudy with Fog 44 6.6 44 6.6 100 100 S 8 13 29.93 1014 0.25 0.402335 0 0
9:13 am 09:13 Cloudy with Fog 45 7 45 7 100 100 S 9 15 29.94 1014 0.5 0.80467 0 0
9:19 am 09:19 Cloudy with Mist and Fog 45 7 45 7 100 100 S 9 15 29.94 1014 1 1.60934 0 0
9:28 am 09:28 Cloudy with Mist and Fog 45 7 45 7 100 100 S 9 15 29.94 1014 1.25 2.011675 0 0
9:36 am 09:36 Cloudy with Mist and Fog 45 7 45 7 100 100 S 9 15 29.94 1014 1.75 2.816345 0 0
9:45 am 09:45 Cloudy with Mist and Fog 45 7 45 7 100 100 S 8 13 29.94 1014 2 3.21868 0 0
9:56 am 09:56 Cloudy with Mist and Fog 45 7.2 45 7.2 100 100 S 8 13 29.93 1014 2 3.21868 0 0
10:36 am 10:36 Cloudy with Mist and Fog 46 8 46 8 100 100 S 7 11 29.94 1014 2.5 4.02335 0 0
10:43 am 10:43 Cloudy with Mist and Fog 46 8 46 8 100 100 S 10 17 29.94 1014 3 4.82802 0 0
10:56 am 10:56 Cloudy with Mist and Fog 46 7.7 46 7.7 100 100 S 10 17 29.93 1013 4 6.43736 0 0
11:14 am 11:14 Cloudy with Mist and Fog 46 8 46 8 100 100 S 9 15 29.94 1014 5 8.0467 0 0
11:37 am 11:37 Mostly Cloudy 48 9 46 8 94 94 S 9 15 29.94 1014 10 16.0934 0 0
11:56 am 11:56 Partly Cloudy 50 10 47 8.3 89 89 S 12 19 29.9 1013 10 16.0934 0 0
12:56 pm 12:56 Sunny 51 10.5 46 7.7 83 83 S 10 17 29.86 1011 10 16.0934 0 0
1:56 pm 13:56 Sunny 52 11.1 46 7.7 80 80 S 10 17 29.82 1010 10 16.0934 0 0
2:56 pm 14:56 Sunny 52 11.1 47 8.3 83 83 S 13 20 29.81 1009 10 16.0934 0 0
3:56 pm 15:56 Sunny 52 11.1 47 8.3 83 83 S 10 17 29.81 1009 10 16.0934 0 0
4:56 pm 16:56 Sunny 51 10.5 47 8.3 86 86 S 8 13 29.82 1010 10 16.0934 0 0
5:56 pm 17:56 Clear 50 10 47 8.3 89 89 S 9 15 29.82 1010 10 16.0934 0 0
6:56 pm 18:56 Clear 50 10 47 8.3 89 89 S 10 17 29.77 1008 10 16.0934 0 0
7:56 pm 19:56 Clear 51 10.5 46 7.7 83 83 S 15 24 29.76 1008 10 16.0934 0 0
8:56 pm 20:56 Clear 51 10.5 46 7.7 83 83 S 15 24 29.78 1008 10 16.0934 0 0
9:56 pm 21:56 Clear 48 8.8 45 7.2 90 90 S 10 17 29.78 1008 10 16.0934 0 0
10:56 pm 22:56 Clear 49 9.4 45 7.2 86 86 SSW 12 19 29.78 1009 10 16.0934 0 0
11:56 pm 23:56 Clear 49 9.4 46 7.7 89 89 S 13 20 29.78 1008 10 16.0934 0 0

Powered by AerisWeather